[[{"header":{"parameterUnit":"m.s-1","parameterCategory":1,"la1":30.2991,"la2":30.254,"lo1":-89.0895,"lo2":-89.0444,"dy":0.0017,"dx":0.0017,"nx":28,"ny":28,"refTime":"2025-05-15T21:00:00:Z","depth":0,"parameterNumber":2,"parameterNumberName":"U-component_of_WINDS"},"data":[0,0,0,0,0,0,0,0,0,0,0,0,0,0,0,0,0,0,0,0,0,0,0,0,0,0,0,0,0,0,0,0,0,0,0,0,0,0,0,0,0,0,0,0,0,0,0,0,0,0,0,0,0,0,0,0,0,0,1.4819,1.4819,0,1.486,1.486,1.4861,1.4828,1.4827,1.4825,1.4824,1.4867,1.487,1.4872,0,0,0,0,0,0,0,0,0,0,0,0,0,1.4713,1.4715,1.4819,1.482,1.482,1.486,1.486,1.4861,1.4828,1.4827,1.4825,1.4823,1.4867,1.487,1.4872,0,0,0,0,0,0,0,0,0,0,0,0,0,1.4757,1.4716,1.4819,1.4809,1.4808,1.486,1.486,1.4861,1.4829,1.4827,1.4825,1.4823,1.4866,1.4869,1.4873,1.4937,0,0,1.4884,1.4886,0,0,0,0,0,0,0,0,1.4755,1.4761,1.481,1.4809,1.4809,1.4837,1.4839,1.4887,1.4829,1.4821,1.4824,1.4822,1.4859,1.4863,1.4875,1.4939,1.4941,1.4884,1.4887,1.4888,1.4889,0,0,0,0,0,0,0,1.4752,1.4759,1.4835,1.481,1.481,1.4802,1.4806,1.4848,1.4851,1.4822,1.4819,1.4824,1.4858,1.4872,1.4876,1.4942,1.4884,1.4888,1.489,1.4891,1.5059,1.5062,0,0,0,0,0,0,1.475,1.4757,1.4834,1.4836,1.4776,1.4806,1.481,1.483,1.4851,1.4852,1.4826,1.4823,1.4867,1.4872,1.4878,1.4954,1.4888,1.4892,1.4894,1.5057,1.506,1.5062,0,0,0,0,0,0,1.4748,1.4757,1.4832,1.4796,1.4805,1.481,1.4832,1.4832,1.4845,1.4854,1.4855,1.4839,1.4865,1.4872,1.4922,1.4955,1.4893,1.4897,1.5055,1.5058,1.5061,1.5107,0,0,0,0,0,0,1.4745,1.4756,1.4781,1.4797,1.4807,1.4876,1.4834,1.4834,1.4851,1.4847,1.4867,1.4868,1.4864,1.4917,1.4926,1.4959,1.4899,1.5052,1.5056,1.506,1.5102,1.5111,1.5119,0,0,0,0,0,1.4741,1.4793,1.4782,1.4792,1.4838,1.4878,1.4884,1.4878,1.4854,1.4879,1.4884,1.4867,1.495,1.4922,1.4932,1.4966,1.505,1.5055,1.506,1.5099,1.5109,1.5119,0,0,0,0,0,0,1.4781,1.4794,1.4783,1.4841,1.4859,1.4873,1.4904,1.489,1.4915,1.491,1.4903,1.4907,1.496,1.4968,1.4937,1.5029,1.4996,1.5003,1.5022,1.5032,1.504,1.5037,1.4903,0,0,0,0,0,1.4796,1.4828,1.4838,1.4888,1.4898,1.4899,1.4917,1.491,1.4928,1.4936,1.4945,1.4963,1.4993,1.5013,1.5041,1.5103,1.5107,1.5132,1.514,1.5146,1.5153,1.5186,1.5197,1.5079,1.5079,1.5079,0,0,1.4829,1.484,1.4861,1.4897,1.4909,1.4942,1.4906,1.4942,1.4966,1.4942,1.4989,1.4996,1.5016,1.5072,1.5097,1.5081,1.5186,1.5153,1.5158,1.5161,1.5192,1.5203,1.5213,1.5083,1.5082,1.5081,0,0,1.4905,1.4917,1.4959,1.4973,1.4992,1.4993,1.5003,1.5018,1.5022,1.5069,1.5051,1.508,1.5132,1.5146,1.5161,1.5241,1.5226,1.525,1.5294,1.5325,1.5335,1.5343,1.5371,1.5381,1.5257,1.5257,1.5257,0,1.4943,1.4991,1.4983,1.5021,1.5037,1.5015,1.5058,1.5071,1.5099,1.5111,1.5092,1.5156,1.5168,1.5227,1.5246,1.5258,1.527,1.5248,1.5334,1.5342,1.535,1.5376,1.5387,1.526,1.5259,1.5259,1.5259,0,1.5037,1.507,1.5103,1.5129,1.5149,1.5189,1.5187,1.5208,1.52,1.5203,1.5251,1.5264,1.5294,1.5308,1.5301,1.5365,1.5354,1.5335,1.5301,1.5364,1.5389,1.5399,1.5264,1.5263,1.5262,1.5261,0,0,1.5139,1.516,1.5172,1.5183,1.5203,1.5229,1.5268,1.5296,1.5314,1.5334,1.5366,1.541,1.5392,1.5408,1.5403,1.5431,1.5492,1.5407,1.5408,1.5423,1.5564,1.5578,1.559,1.5482,1.5484,1.5486,1.5562,0,1.5215,1.5283,1.5276,1.534,1.5371,1.535,1.5384,1.54,1.5403,1.5429,1.5433,1.5464,1.5438,1.5447,1.5474,1.5479,1.5521,1.5474,1.5513,1.5514,1.5508,1.5603,1.5619,1.569,1.5572,1.5573,1.5575,0,1.5313,1.5336,1.5402,1.5416,1.5429,1.5459,1.5484,1.551,1.5527,1.5528,1.5545,1.5535,1.5574,1.5539,1.5593,1.5561,1.5576,1.5581,1.5584,1.5587,1.5548,1.5609,1.5713,1.5723,1.559,1.5589,1.5588,0,1.5381,1.5428,1.5473,1.5484,1.5501,1.5523,1.5531,1.5546,1.5564,1.5586,1.5597,1.5624,1.5638,1.5659,1.5656,1.5631,1.5711,1.5676,1.5712,1.5712,1.573,1.5729,1.5837,1.574,1.574,1.574,1.574,0,1.5466,1.5508,1.5504,1.5532,1.5578,1.557,1.5615,1.5621,1.5634,1.5663,1.5647,1.5675,1.5669,1.5696,1.5694,1.5739,1.5746,1.5747,1.5746,1.5748,1.5748,1.5758,1.5753,1.5743,1.5742,1.5742,1.5741,0,1.555,1.5548,1.5597,1.5609,1.5613,1.5646,1.5656,1.5683,1.5684,1.5721,1.5729,1.5732,1.5763,1.5762,1.5798,1.5796,1.5851,1.5845,1.5845,1.5844,1.588,1.5877,1.5999,1.6014,1.5907,1.5908,1.5909,0,1.5604,1.5635,1.5651,1.5668,1.5678,1.5707,1.5724,1.5718,1.5736,1.5758,1.5782,1.5811,1.5835,1.5886,1.5891,1.5918,1.5912,1.5953,1.5916,1.5917,1.5912,1.591,1.5913,1.596,1.5962,1.5963,1.5963,0,1.5701,1.5698,1.5724,1.5749,1.5769,1.5789,1.5807,1.5823,1.5818,1.584,1.5871,1.5889,1.5925,1.5955,1.5981,1.5989,1.5976,1.5975,1.5985,1.5987,1.5986,1.5987,1.5865,1.5972,1.5971,1.5971,1.597,1.597,1.5771,1.5797,1.5812,1.584,1.5853,1.587,1.5895,1.5899,1.5925,1.5953,1.5948,1.5983,1.5999,1.6032,1.6043,1.6071,1.6057,1.6071,1.6074,1.6078,1.6082,1.5982,1.6076,1.6076,1.6075,1.6075,1.6075,0,1.5866,1.5874,1.5901,1.5926,1.5948,1.5932,1.5951,1.5971,1.6002,1.6017,1.604,1.6076,1.6105,1.6112,1.614,1.616,1.6155,1.6168,1.6166,1.6168,1.6094,1.6082,1.6172,1.6172,1.6172,1.6172,1.6172,1.6172,1.5919,1.5962,1.5962,1.6011,1.6019,1.6053,1.6065,1.608,1.6093,1.6133,1.6156,1.6161,1.6173,1.6201,1.6227,1.6228,1.6239,1.6254,1.6253,1.6183,1.6174,1.6164,1.6154,1.6257,1.6257,1.6326,1.6326,1.6327]},{"header":{"parameterUnit":"m.s-1","parameterCategory":1,"la1":30.2991,"la2":30.254,"lo1":-89.0895,"lo2":-89.0444,"dy":0.0017,"dx":0.0017,"nx":28,"ny":28,"refTime":"2025-05-15T21:00:00:Z","depth":0,"parameterNumber":3,"parameterNumberName":"V-component_of_WINDS"},"data":[0,0,0,0,0,0,0,0,0,0,0,0,0,0,0,0,0,0,0,0,0,0,0,0,0,0,0,0,0,0,0,0,0,0,0,0,0,0,0,0,0,0,0,0,0,0,0,0,0,0,0,0,0,0,0,0,0,0,5.4002,5.4003,0,5.4093,5.4094,5.4095,5.406,5.4058,5.4056,5.4054,5.4141,5.4145,5.4149,0,0,0,0,0,0,0,0,0,0,0,0,0,5.3791,5.3795,5.4002,5.4003,5.4004,5.4093,5.4094,5.4096,5.4061,5.4058,5.4056,5.4053,5.4139,5.4144,5.4149,0,0,0,0,0,0,0,0,0,0,0,0,0,5.3882,5.3796,5.4002,5.3998,5.3998,5.4093,5.4094,5.4096,5.4061,5.4058,5.4055,5.4052,5.4138,5.4144,5.415,5.4252,0,0,5.417,5.4172,0,0,0,0,0,0,0,0,5.3877,5.389,5.3997,5.3998,5.3999,5.4062,5.4051,5.4148,5.4062,5.4037,5.4054,5.4051,5.4117,5.4125,5.4148,5.4256,5.426,5.417,5.4174,5.4177,5.4179,0,0,0,0,0,0,0,5.3871,5.3886,5.4038,5.3999,5.4,5.3989,5.3999,5.407,5.4093,5.4039,5.4037,5.4048,5.4117,5.4142,5.415,5.4261,5.417,5.4176,5.418,5.4182,5.4456,5.446,0,0,0,0,0,0,5.3865,5.3881,5.4035,5.4041,5.3929,5.3995,5.4006,5.4045,5.4092,5.4097,5.4051,5.4046,5.4133,5.4143,5.4153,5.4276,5.4177,5.4183,5.4186,5.4453,5.4457,5.4461,0,0,0,0,0,0,5.386,5.3879,5.4031,5.396,5.3979,5.4003,5.4046,5.4049,5.4074,5.4101,5.4105,5.4074,5.4131,5.4144,5.4228,5.4278,5.4185,5.4191,5.4449,5.4454,5.4459,5.4522,0,0,0,0,0,0,5.3855,5.3878,5.3918,5.3961,5.3983,5.4107,5.405,5.4053,5.4086,5.4081,5.4123,5.4127,5.4129,5.4219,5.4234,5.4285,5.4196,5.4445,5.4451,5.4457,5.4516,5.4529,5.454,0,0,0,0,0,5.3847,5.3931,5.3921,5.3939,5.4034,5.411,5.4122,5.4125,5.4091,5.413,5.4148,5.4126,5.427,5.4228,5.4245,5.4299,5.4441,5.4449,5.4457,5.451,5.4526,5.454,0,0,0,0,0,0,5.389,5.3936,5.3925,5.4026,5.4065,5.4104,5.4155,5.4142,5.4189,5.4182,5.4181,5.4191,5.4278,5.4296,5.4248,5.44,5.435,5.4362,5.4385,5.44,5.4412,5.4406,5.4202,0,0,0,0,0,5.3912,5.3972,5.4008,5.4093,5.4113,5.4131,5.4164,5.4163,5.4202,5.4217,5.4241,5.4278,5.4331,5.4367,5.4417,5.4518,5.4526,5.4563,5.4575,5.4585,5.4595,5.465,5.4667,5.4487,5.4487,5.4486,0,0,5.3956,5.3989,5.4026,5.4102,5.4132,5.4193,5.4145,5.421,5.4255,5.4226,5.4309,5.4327,5.4368,5.4461,5.4503,5.4479,5.4647,5.4595,5.4603,5.4608,5.466,5.4677,5.4692,5.4492,5.4491,5.449,0,0,5.4068,5.4099,5.4174,5.4206,5.4253,5.4264,5.4282,5.4324,5.4336,5.4418,5.4399,5.445,5.4542,5.4572,5.46,5.4724,5.4706,5.474,5.4804,5.4857,5.4872,5.4884,5.4929,5.4945,5.475,5.475,5.475,0,5.4117,5.421,5.4213,5.4282,5.4315,5.4295,5.437,5.4399,5.4459,5.4482,5.4454,5.4571,5.4597,5.4697,5.4727,5.475,5.4769,5.4736,5.487,5.4882,5.4894,5.4936,5.4953,5.4754,5.4754,5.4753,5.4753,0,5.4267,5.4332,5.4386,5.4448,5.4487,5.4558,5.457,5.461,5.4605,5.4618,5.4702,5.4733,5.479,5.4813,5.4808,5.4913,5.4896,5.4869,5.482,5.4915,5.4955,5.4971,5.476,5.4758,5.4757,5.4756,0,0,5.4409,5.4473,5.4493,5.4521,5.4571,5.462,5.4689,5.4747,5.4781,5.4822,5.488,5.4959,5.4935,5.4966,5.4964,5.5011,5.5108,5.4978,5.4979,5.5002,5.5225,5.5245,5.5264,5.5096,5.5099,5.5101,5.5221,0,5.4526,5.4651,5.4656,5.4769,5.4828,5.481,5.487,5.4906,5.4921,5.4971,5.4985,5.5042,5.5005,5.5024,5.507,5.5086,5.5152,5.5077,5.5148,5.515,5.5139,5.5285,5.5307,5.5419,5.5237,5.524,5.5241,0,5.4679,5.4729,5.4849,5.4891,5.4916,5.4971,5.5024,5.5073,5.5113,5.512,5.5156,5.5147,5.5216,5.5164,5.5259,5.5208,5.5236,5.5249,5.5253,5.526,5.5202,5.5297,5.5455,5.5472,5.5266,5.5264,5.5262,0,5.4772,5.4868,5.4952,5.4976,5.5028,5.5067,5.509,5.5127,5.5162,5.5208,5.523,5.5283,5.5311,5.5351,5.5356,5.5318,5.5451,5.54,5.5458,5.5458,5.5488,5.5486,5.5654,5.5505,5.5505,5.5504,5.5504,0,5.4902,5.4976,5.4995,5.5047,5.5129,5.5133,5.5213,5.5232,5.5266,5.532,5.5305,5.5356,5.5359,5.541,5.5414,5.5492,5.5504,5.5511,5.5512,5.5513,5.5513,5.5532,5.5525,5.5509,5.5508,5.5507,5.5506,0,5.5019,5.5035,5.5126,5.5168,5.518,5.5239,5.5274,5.5322,5.5335,5.5404,5.542,5.5439,5.5499,5.5508,5.5577,5.558,5.5673,5.5665,5.5661,5.566,5.5718,5.5713,5.5905,5.5931,5.5765,5.5766,5.5768,0,5.5102,5.5159,5.5208,5.5244,5.527,5.5328,5.5365,5.537,5.5408,5.5458,5.5501,5.5559,5.5607,5.5702,5.5721,5.5774,5.5767,5.5831,5.5775,5.5775,5.5769,5.5766,5.5772,5.5842,5.5844,5.5845,5.5846,0,5.5247,5.5252,5.5306,5.5364,5.5408,5.5452,5.5494,5.5524,5.5535,5.5578,5.564,5.5677,5.5749,5.5807,5.5859,5.588,5.5865,5.5864,5.588,5.5883,5.5879,5.5883,5.5691,5.586,5.5858,5.5857,5.5857,5.5856,5.535,5.54,5.5443,5.5503,5.5536,5.5576,5.5624,5.5644,5.5697,5.5758,5.5757,5.5825,5.5863,5.5933,5.5957,5.6009,5.5988,5.6012,5.6018,5.6024,5.603,5.587,5.6018,5.6018,5.6018,5.6017,5.6017,0,5.5494,5.5522,5.5578,5.5638,5.5686,5.567,5.5715,5.5756,5.5817,5.5855,5.5902,5.5974,5.603,5.6054,5.6109,5.6146,5.6141,5.616,5.6158,5.6163,5.6045,5.6026,5.6164,5.6164,5.6164,5.6164,5.6164,5.6164,5.5576,5.566,5.567,5.577,5.5796,5.5865,5.5892,5.5929,5.5959,5.604,5.6088,5.6104,5.6136,5.6194,5.6244,5.625,5.6271,5.6294,5.6296,5.6186,5.6171,5.6157,5.6139,5.6298,5.6299,5.641,5.6411,5.6412]}]]